Time,TemperatureF,DewpointF,PressureIn,WindDirection,WindDirectionDegrees,WindSpeedMPH,WindSpeedGustMPH,Humidity,HourlyPrecipIn,Conditions,Clouds,dailyrainin,SoftwareType,DateUTC
2013-10-22 00:02:00,68.0,66.0,29.96,NW,310,0.0,0.0,94,0.00,,,0.02,weatherlink.com 1.10,2013-10-22 10:02:00,
2013-10-22 00:20:00,67.9,66.0,29.96,NW,310,0.0,0.0,94,0.00,,,0.00,weatherlink.com 1.10,2013-10-22 10:20:00,
2013-10-22 00:38:00,68.2,67.0,29.96,NW,310,0.0,0.0,95,0.00,,,0.00,weatherlink.com 1.10,2013-10-22 10:38:00,
2013-10-22 00:56:00,68.2,67.0,29.96,NW,310,0.0,0.0,95,0.00,,,0.00,weatherlink.com 1.10,2013-10-22 10:56:00,
2013-10-22 01:14:00,68.0,66.0,29.96,NW,310,0.0,0.0,94,0.00,,,0.00,weatherlink.com 1.10,2013-10-22 11:14:00,
2013-10-22 01:32:00,68.0,67.0,29.95,NW,310,0.0,0.0,95,0.00,,,0.00,weatherlink.com 1.10,2013-10-22 11:32:00,
2013-10-22 01:50:00,68.2,67.0,29.95,NW,310,0.0,0.0,95,0.00,,,0.00,weatherlink.com 1.10,2013-10-22 11:50:00,
2013-10-22 02:08:00,68.1,67.0,29.95,NW,310,0.0,0.0,95,0.00,,,0.00,weatherlink.com 1.10,2013-10-22 12:08:00,
2013-10-22 02:26:00,67.8,66.0,29.95,NW,310,0.0,0.0,95,0.00,,,0.00,weatherlink.com 1.10,2013-10-22 12:26:00,
2013-10-22 02:44:00,67.8,66.0,29.94,NW,310,0.0,0.0,95,0.00,,,0.00,weatherlink.com 1.10,2013-10-22 12:44:00,
2013-10-22 03:03:00,67.6,66.0,29.94,NW,310,0.0,0.0,95,0.00,,,0.00,weatherlink.com 1.10,2013-10-22 13:03:00,
2013-10-22 03:21:00,67.5,66.0,29.93,NW,310,0.0,0.0,95,0.00,,,0.00,weatherlink.com 1.10,2013-10-22 13:21:00,
2013-10-22 03:39:00,67.2,66.0,29.93,NW,310,0.0,0.0,95,0.00,,,0.00,weatherlink.com 1.10,2013-10-22 13:39:00,
2013-10-22 03:57:00,67.3,66.0,29.93,NW,310,0.0,0.0,95,0.00,,,0.00,weatherlink.com 1.10,2013-10-22 13:57:00,
2013-10-22 04:15:00,67.2,66.0,29.93,NW,310,0.0,0.0,96,0.00,,,0.00,weatherlink.com 1.10,2013-10-22 14:15:00,
2013-10-22 04:33:00,67.1,66.0,29.93,NW,310,0.0,0.0,96,0.00,,,0.00,weatherlink.com 1.10,2013-10-22 14:33:00,
2013-10-22 04:52:00,67.5,66.0,29.93,NW,310,0.0,0.0,96,0.00,,,0.00,weatherlink.com 1.10,2013-10-22 14:52:00,
2013-10-22 05:10:00,67.4,66.0,29.93,NW,310,0.0,0.0,96,0.00,,,0.00,weatherlink.com 1.10,2013-10-22 15:10:00,
2013-10-22 05:28:00,67.2,66.0,29.93,NW,310,0.0,0.0,96,0.00,,,0.00,weatherlink.com 1.10,2013-10-22 15:28:00,
2013-10-22 05:46:00,67.1,66.0,29.93,NW,310,0.0,0.0,96,0.00,,,0.00,weatherlink.com 1.10,2013-10-22 15:46:00,
2013-10-22 06:04:00,67.5,66.0,29.93,NW,310,0.0,0.0,96,0.00,,,0.00,weatherlink.com 1.10,2013-10-22 16:04:00,
2013-10-22 06:22:00,67.6,66.0,29.94,NW,310,0.0,0.0,96,0.00,,,0.00,weatherlink.com 1.10,2013-10-22 16:22:00,
2013-10-22 06:41:00,68.1,67.0,29.95,NW,310,0.0,0.0,96,0.00,,,0.00,weatherlink.com 1.10,2013-10-22 16:41:00,
2013-10-22 06:59:00,68.7,68.0,29.95,NW,310,0.0,0.0,96,0.00,,,0.00,weatherlink.com 1.10,2013-10-22 16:59:00,
2013-10-22 07:17:00,70.1,69.0,29.95,NW,304,0.0,0.0,97,0.00,,,0.00,weatherlink.com 1.10,2013-10-22 17:17:00,
2013-10-22 07:35:00,72.0,71.0,29.96,SSW,210,0.0,2.0,97,0.00,,,0.00,weatherlink.com 1.10,2013-10-22 17:35:00,
2013-10-22 07:53:00,74.0,73.0,29.96,SSW,210,0.0,0.0,96,0.00,,,0.00,weatherlink.com 1.10,2013-10-22 17:53:00,
2013-10-22 08:11:00,74.7,72.0,29.96,NW,313,0.0,1.0,91,0.00,,,0.00,weatherlink.com 1.10,2013-10-22 18:11:00,
2013-10-22 08:29:00,74.9,72.0,29.97,NW,313,0.0,2.0,90,0.00,,,0.00,weatherlink.com 1.10,2013-10-22 18:29:00,
2013-10-22 08:47:00,75.4,72.0,29.97,WNW,299,0.0,1.0,89,0.00,,,0.00,weatherlink.com 1.10,2013-10-22 18:47:00,
2013-10-22 09:05:00,76.0,72.0,29.97,WNW,299,0.0,0.0,88,0.03,,,0.03,weatherlink.com 1.10,2013-10-22 19:05:00,
2013-10-22 09:23:00,77.2,74.0,29.98,WNW,299,2.0,2.0,89,0.03,,,0.03,weatherlink.com 1.10,2013-10-22 19:23:00,
2013-10-22 09:41:00,76.8,73.0,29.98,NW,305,0.0,3.0,88,0.03,,,0.03,weatherlink.com 1.10,2013-10-22 19:41:00,
2013-10-22 09:59:00,77.6,73.0,29.98,NNW,336,3.0,6.0,86,0.01,,,0.03,weatherlink.com 1.10,2013-10-22 19:59:00,
2013-10-22 10:18:00,78.9,73.0,29.98,NNW,338,3.0,8.0,81,0.00,,,0.03,weatherlink.com 1.10,2013-10-22 20:18:00,
2013-10-22 10:36:00,80.2,73.0,29.97,North,350,5.0,9.0,79,0.00,,,0.03,weatherlink.com 1.10,2013-10-22 20:36:00,
2013-10-22 10:54:00,80.5,73.0,29.97,North,355,5.0,9.0,78,0.00,,,0.03,weatherlink.com 1.10,2013-10-22 20:54:00,
2013-10-22 11:12:00,81.0,73.0,29.97,North,355,4.0,12.0,76,0.00,,,0.03,weatherlink.com 1.10,2013-10-22 21:12:00,
2013-10-22 11:30:00,81.4,73.0,29.96,North,5,4.0,8.0,76,0.00,,,0.03,weatherlink.com 1.10,2013-10-22 21:30:00,
2013-10-22 11:49:00,82.3,74.0,29.95,NNW,336,4.0,10.0,75,0.00,,,0.03,weatherlink.com 1.10,2013-10-22 21:49:00,
2013-10-22 12:07:00,81.5,72.0,29.95,ENE,69,1.0,8.0,74,0.00,,,0.03,weatherlink.com 1.10,2013-10-22 22:07:00,
2013-10-22 12:24:00,80.3,72.0,29.94,NE,40,4.0,7.0,77,0.00,,,0.03,weatherlink.com 1.10,2013-10-22 22:24:00,
2013-10-22 12:43:00,81.1,74.0,29.94,North,5,7.0,10.0,78,0.00,,,0.03,weatherlink.com 1.10,2013-10-22 22:43:00,
2013-10-22 13:01:00,82.1,74.0,29.93,NNE,22,7.0,9.0,76,0.00,,,0.03,weatherlink.com 1.10,2013-10-22 23:01:00,
2013-10-22 13:19:00,82.2,73.0,29.93,NNW,338,7.0,11.0,75,0.00,,,0.03,weatherlink.com 1.10,2013-10-22 23:19:00,
2013-10-22 13:37:00,80.2,73.0,29.93,NNW,341,5.0,9.0,78,0.00,,,0.03,weatherlink.com 1.10,2013-10-22 23:37:00,
2013-10-22 13:55:00,81.6,73.0,29.92,NE,47,1.0,13.0,75,0.00,,,0.03,weatherlink.com 1.10,2013-10-22 23:55:00,
2013-10-22 14:13:00,82.9,73.0,29.92,NNE,19,6.0,10.0,73,0.00,,,0.03,weatherlink.com 1.10,2013-10-23 00:13:00,
2013-10-22 14:32:00,82.2,73.0,29.92,NE,55,1.0,10.0,73,0.00,,,0.03,weatherlink.com 1.10,2013-10-23 00:32:00,
2013-10-22 14:49:00,82.1,72.0,29.92,NW,323,8.0,12.0,72,0.00,,,0.03,weatherlink.com 1.10,2013-10-23 00:49:00,
2013-10-22 15:07:00,81.8,73.0,29.92,NW,323,0.0,10.0,75,0.00,,,0.03,weatherlink.com 1.10,2013-10-23 01:07:00,
2013-10-22 15:25:00,81.7,73.0,29.92,NNE,27,2.0,9.0,74,0.00,,,0.03,weatherlink.com 1.10,2013-10-23 01:25:00,
2013-10-22 15:44:00,81.0,72.0,29.92,NNE,19,5.0,10.0,74,0.00,,,0.03,weatherlink.com 1.10,2013-10-23 01:44:00,
2013-10-22 16:02:00,81.4,72.0,29.92,NNW,341,3.0,10.0,73,0.00,,,0.03,weatherlink.com 1.10,2013-10-23 02:02:00,
2013-10-22 16:20:00,80.6,72.0,29.92,NNW,347,5.0,7.0,74,0.00,,,0.03,weatherlink.com 1.10,2013-10-23 02:20:00,
2013-10-22 16:38:00,80.0,71.0,29.92,North,350,3.0,8.0,75,0.00,,,0.03,weatherlink.com 1.10,2013-10-23 02:38:00,
2013-10-22 16:56:00,79.4,72.0,29.92,NNE,23,0.0,6.0,77,0.00,,,0.03,weatherlink.com 1.10,2013-10-23 02:56:00,
2013-10-22 17:14:00,78.7,71.0,29.92,NE,34,0.0,5.0,77,0.00,,,0.03,weatherlink.com 1.10,2013-10-23 03:14:00,
2013-10-22 17:32:00,78.3,71.0,29.93,ENE,75,0.0,3.0,78,0.00,,,0.03,weatherlink.com 1.10,2013-10-23 03:32:00,
2013-10-22 17:50:00,77.9,71.0,29.93,North,5,0.0,0.0,79,0.00,,,0.03,weatherlink.com 1.10,2013-10-23 03:50:00,
2013-10-22 18:08:00,77.4,71.0,29.93,NE,36,0.0,4.0,80,0.00,,,0.03,weatherlink.com 1.10,2013-10-23 04:08:00,
2013-10-22 18:26:00,77.4,71.0,29.93,East,81,0.0,5.0,80,0.00,,,0.03,weatherlink.com 1.10,2013-10-23 04:26:00,
2013-10-22 18:45:00,77.0,70.0,29.94,East,79,0.0,1.0,78,0.00,,,0.03,weatherlink.com 1.10,2013-10-23 04:45:00,
2013-10-22 19:03:00,76.9,70.0,29.95,NNE,31,0.0,1.0,78,0.00,,,0.03,weatherlink.com 1.10,2013-10-23 05:03:00,
2013-10-22 19:21:00,76.8,70.0,29.96,East,96,0.0,1.0,79,0.00,,,0.03,weatherlink.com 1.10,2013-10-23 05:21:00,
2013-10-22 19:39:00,77.0,70.0,29.96,NE,36,0.0,1.0,80,0.00,,,0.03,weatherlink.com 1.10,2013-10-23 05:39:00,
2013-10-22 19:57:00,77.1,70.0,29.96,NE,44,0.0,2.0,80,0.00,,,0.03,weatherlink.com 1.10,2013-10-23 05:57:00,
2013-10-22 20:15:00,77.0,70.0,29.97,NE,48,0.0,1.0,80,0.00,,,0.03,weatherlink.com 1.10,2013-10-23 06:15:00,
2013-10-22 20:33:00,76.9,71.0,29.98,ENE,59,0.0,0.0,81,0.00,,,0.03,weatherlink.com 1.10,2013-10-23 06:33:00,
2013-10-22 20:51:00,76.6,70.0,29.98,ENE,59,0.0,0.0,81,0.00,,,0.03,weatherlink.com 1.10,2013-10-23 06:51:00,
2013-10-22 21:09:00,76.4,70.0,29.98,ENE,59,0.0,1.0,82,0.00,,,0.03,weatherlink.com 1.10,2013-10-23 07:09:00,
2013-10-22 21:27:00,76.4,70.0,29.98,East,81,0.0,0.0,82,0.00,,,0.03,weatherlink.com 1.10,2013-10-23 07:27:00,
2013-10-22 21:45:00,76.2,71.0,29.98,ENE,59,0.0,0.0,83,0.00,,,0.03,weatherlink.com 1.10,2013-10-23 07:45:00,
2013-10-22 22:03:00,76.0,70.0,29.98,South,178,0.0,0.0,83,0.00,,,0.03,weatherlink.com 1.10,2013-10-23 08:03:00,
2013-10-22 22:22:00,75.7,71.0,29.98,ESE,119,0.0,0.0,84,0.00,,,0.03,weatherlink.com 1.10,2013-10-23 08:22:00,
2013-10-22 22:39:00,75.3,70.0,29.98,ESE,119,0.0,0.0,83,0.00,,,0.03,weatherlink.com 1.10,2013-10-23 08:39:00,
2013-10-22 22:58:00,75.4,70.0,29.98,East,90,0.0,0.0,84,0.00,,,0.03,weatherlink.com 1.10,2013-10-23 08:58:00,
2013-10-22 23:16:00,75.5,70.0,29.98,East,89,0.0,0.0,84,0.00,,,0.03,weatherlink.com 1.10,2013-10-23 09:16:00,
2013-10-22 23:34:00,75.0,70.0,29.98,East,89,0.0,0.0,85,0.00,,,0.03,weatherlink.com 1.10,2013-10-23 09:34:00,
2013-10-22 23:52:00,75.0,70.0,29.98,East,90,0.0,0.0,85,0.00,,,0.03,weatherlink.com 1.10,2013-10-23 09:52:00,